Uitslag Pocolocoroeseltriatlon top 3

# Naam Totaal
1 (1) Sabbe Jasper 00:59:19 91.00
2 (2) Callebaut Hannes 01:00:12 89.14
3 (4) De Wannemaeker Nick 01:03:32 86.65
4 (5) Gabriel David 01:03:57 86.34
5 (6) De Donder Hadwin 01:05:13 85.40
6 (7) Vandewiele Karel 01:05:14 85.38
7 (8) Veranneman Tom 01:05:36 85.11
8 (9) Bruffaerts Stefaan 01:06:18 84.59
9 (10) Tritar Mehdi 01:06:32 84.41
10 (11) Bruyneel Stijn 01:06:44 84.27
11 (12) Debaeke Jelmer 01:07:00 84.07
12 (13) Vanhoutte Jaron 01:07:07 83.98
13 (14) Beernaert Jochen 01:07:30 83.69
14 (15) Devloo Dries 01:07:31 83.68
15 (17) Bodere Joachim 01:07:45 83.51
16 (18) Defauw lieven 01:08:10 83.20
17 (20) Parrein Jans 01:08:24 83.02
18 (21) Vandenberghe Rudi 01:08:31 82.93
19 (22) Vanderhaeghe Alexander 01:08:49 82.71
20 (25) Salomez Carl 01:09:18 82.35
21 (28) Vandekerkhovd Margot 01:09:59 81.84
22 (29) Feryn Dries 01:10:13 81.67
23 (30) Gheysens Jan 01:10:27 81.49
24 (31) Van De Velde Stieven 01:10:48 81.23
25 (32) De Backer Mattias 01:10:53 81.17
26 (34) Bogaert Tybo 01:11:25 80.77
27 (38) Cornelis Jan 01:11:50 80.46
28 (39) Decock Lucas 01:11:58 80.36
29 (42) Feys Bert 01:12:26 80.01
30 (43) Simoens Tom 01:12:38 79.86
31 (44) Versaevel Emiel 01:12:40 79.84
32 (46) Pype Bene 01:13:02 79.56
33 (47) Van Eenoo Geert 01:13:11 79.45
34 (49) Decoene Sam 01:13:16 79.39
35 (51) Deweer Arne 01:13:22 79.32
36 (52) Cuvelier Dieter 01:13:28 79.24
37 (53) Lateur Dieter 01:13:49 78.98
38 (54) Blontia Nico 01:13:54 78.92
39 (55) Debaets Stevie 01:13:57 78.88
40 (56) Acke Wim 01:13:58 78.87
41 (58) Decoene Thomas 01:14:00 78.84
42 (59) De Keulenaer Wim 01:14:02 78.82
43 (62) Deboeuf Laurens 01:14:14 78.67
44 (63) Verstraete Ruben 01:14:35 78.41
45 (65) Desmet Lieven 01:14:54 78.17
46 (66) De Witte Stijn 01:14:54 78.17
47 (68) de maeyer jan 01:15:15 77.91
48 (69) Lemahieu Isi 01:15:30 77.72
49 (71) Vanysacker Pieter 01:15:34 77.67
50 (72) Lesage Wim 01:15:35 77.66
51 (73) Van Grootven Bastiaan 01:15:40 77.60
52 (75) Ghekiere Magalie 01:15:46 77.52
53 (76) Tempelaere Brecht 01:15:50 77.47
54 (77) Lobeau Tim 01:15:52 77.45
55 (78) Rosez Diederik 01:15:54 77.42
56 (80) Geerardyn Nicolas 01:16:16 77.15
57 (81) Bruneel Kennith 01:16:16 77.15
58 (82) Carly Rien 01:16:16 77.15
59 (83) Vansteenkiste Stephan 01:16:16 77.15
60 (87) Dhaenens Marijn 01:16:41 76.84
61 (90) Vande Vyvere Thomas 01:17:49 75.99
62 (94) Vandeputte Simon 01:18:04 75.81
63 (95) Lapere Bram 01:18:07 75.77
64 (98) Ghekiere Philip 01:18:31 75.47
65 (99) Meeus Jeff 01:18:39 75.37
66 (100) Clauw Björn 01:18:39 75.37
67 (101) Vandille Thomas 01:18:49 75.25
68 (103) Declerck Alexander 01:18:54 75.19
69 (105) Van Hellemont Peter 01:18:59 75.12
70 (109) Lyphout Bart 01:19:33 74.70
71 (111) Devos Ewout 01:19:42 74.59
72 (112) Tampere Kristof 01:19:49 74.50
73 (115) Byltiauw Matthias 01:20:01 74.35
74 (116) Braet David 01:20:16 74.17
75 (118) Warmoes Jan 01:20:34 73.94
76 (119) Dael Koen 01:20:39 73.88
77 (122) Mispelaere Marieke 01:21:00 73.62
78 (123) De Donder Ewout 01:21:04 73.57
79 (125) Lagacie Pieter 01:21:20 73.37
80 (126) Bottecaer Bram 01:21:25 73.31
81 (128) Bortier Jurgen 01:21:37 73.16
82 (129) Vanderhaeghe Dries 01:21:40 73.12
83 (134) Vanhaverbeke GaËlle 01:22:46 72.30
84 (135) Duyck-leman AnnaËl 01:22:47 72.29
85 (138) Schelpe Johan 01:22:59 72.14
86 (139) Notredame Kristof 01:23:02 72.10
87 (140) Dendooven Matthias 01:23:03 72.09
88 (144) Pieters Maarten 01:23:27 71.79
89 (145) Braeye Toon 01:23:31 71.74
90 (146) Soete Elisabeth 01:23:33 71.72
91 (147) Ketels Jens 01:23:37 71.67
92 (151) Tarras Remi 01:24:06 71.31
93 (153) Castelein Matthias 01:24:30 71.01
94 (155) Denolf Peter 01:24:37 70.92
95 (156) Hemelaere Harold 01:24:43 70.85
96 (158) Goegebeur Tom 01:25:16 70.43
97 (159) Cracco Dries 01:25:18 70.41
98 (161) Van Zandycke 01:25:22 70.36
99 (162) Annedien Enter 01:25:26 70.31
100 (166) Lambelin Andy 01:26:33 69.48
101 (169) Dewulf Sien 01:26:36 69.44
102 (171) Delannoy Jens 01:26:50 69.27
103 (176) Vandenbroucke Emilie 01:27:10 69.02
104 (180) Vandekerckhove Bruno 01:28:10 68.27
105 (184) Maes Magali 01:28:52 67.75
106 (185) Charis D.milonas 01:28:58 67.67
107 (188) Maaike Craeynest 01:29:12 67.50
108 (189) Lambrecht Mathieu 01:29:13 67.49
109 (192) GabriËls Sofie 01:29:29 67.29
110 (194) Van Moere Kris 01:29:36 67.20
111 (195) Lannoy Leen 01:29:42 67.13
112 (196) Verlinde Robin 01:29:46 67.08
113 (198) D’hoop Kaat 01:30:02 66.88
114 (199) Geerardyn Gino 01:30:16 66.70
115 (202) Lebegge Lies 01:30:35 66.47
116 (203) Verlinde Dirk 01:30:42 66.38
117 (205) Delputte Louise 01:30:51 66.27
118 (206) Myny Dries 01:30:54 66.23
119 (211) Van Tomme Kate 01:31:39 65.67
120 (214) Callens Jonas 01:31:46 65.58
121 (215) Saar Buyse 01:31:48 65.56
122 (216) Brackeva Brecht 01:31:55 65.47
123 (220) De Geest Hanne 01:32:39 64.93
124 (221) Callewier Nike 01:32:59 64.68
125 (222) Notredame Kelly 01:33:44 64.12
126 (223) Vangheluwe Silke 01:33:54 63.99
127 (224) Deforche Maxime 01:34:16 63.72
128 (225) Willems Stijn 01:34:52 63.27
129 (226) Sansen Stijn 01:35:25 62.86
130 (229) Huvaere Ann 01:35:53 62.51
131 (230) Labaere Sharon 01:36:12 62.28
132 (232) Sofie De Ruytter 01:37:44 61.13
133 (234) Clockaerts Michael 01:38:31 60.55
134 (235) Nimmegeers Anneleen 01:39:03 60.15
135 (238) Vanhaverbeke Luc 01:40:00 59.44
136 (239) Impens Tessa 01:40:20 59.19
137 (240) Verstraete Stefaan 01:40:43 58.91
138 (241) Pissierssens Sarah 01:41:29 58.33
139 (242) Gentier Chris 01:41:48 58.10
140 (244) Taghon Dimitri 01:42:13 57.79
141 (246) Herbiet Lucy 01:42:20 57.70
142 (248) Peeters Joeri 01:43:46 56.63
143 (249) Verdonck Leen 01:44:01 56.44
144 (252) Vanhecke Stan 01:46:10 54.84
145 (254) Verschaeren Yana 01:50:48 51.38
146 (255) Deroo Johan 02:02:36 42.58
147 (256) De Mets Jessica 02:19:15 29.15

Reacties

  • Nog geen reacties beschikbaar